Weather History for Volk, WI

Change the Weather History Date:

Saturday, July 21, 2012

  Actual Average Record
Temperature  
Mean Temperature 73 °F -  
Max Temperature 87 °F 78 °F 91 °F (2001)
Min Temperature 59 °F 63 °F 42 °F (2007)
Cooling Degree Days 8    
Growing Degree Days 23 (Base 50)    
Moisture  
Dew Point 68 °F    
Average Humidity 92    
Maximum Humidity 100    
Minimum Humidity 52    
Precipitation  
Precipitation 0.03 in - - ()
Sea Level Pressure  
Sea Level Pressure 30.05 in    
Wind  
Wind Speed 4 mph (WSW)    
Max Wind Speed 12 mph    
Max Gust Speed 17 mph    
Visibility 8 miles    
Events Rain    
Averages and records for this station are not official NWS values.
T = Trace of Precipitation, MM = Missing Value Source: NWS Daily Summary

Daily Weather History Graph

Daily Weather History Graph

Search for Another Location

Airport:

Trip Planner

Search our weather history database for the weather conditions in past years. The results will help you decide how hot, cold, wet, or windy it might be!

Date:

Astronomy

Jul. 21, 2012 Rise Set
Actual Time 5:38 AM CDT 8:35 PM CDT
Civil Twilight 5:04 AM CDT 9:09 PM CDT
Nautical Twilight 4:20 AM CDT 9:53 PM CDT
Astronomical Twilight 3:28 AM CDT 10:44 PM CDT
Moon 8:27 AM CDT (7/21) 9:38 PM CDT (7/21)
Length of Visible Light 16h 05m
Length of Day
14h 57m
Waxing Crescent, 7% of the Moon is Illuminated
Jul 21
Waxing Crescent
Jul 26
First Quarter
Aug 1
Full
Aug 9
Last Quarter
Aug 17
New

Hourly Weather History & Observations

Time (CDT) Temp. Heat Index Dew Point Humidity Pressure Visibility Wind Dir Wind Speed Gust Speed Precip Events Conditions
12:55 AM 63.5 °F - 63.5 °F 100% 30.05 in 10.0 mi SE 5.8 mph - N/A   Clear
1:55 AM 61.7 °F - 61.7 °F 100% 30.05 in 10.0 mi ESE 5.8 mph - N/A   Clear
2:55 AM 62.1 °F - 62.1 °F 100% 30.03 in 8.0 mi Calm Calm - N/A   Clear
3:55 AM 59.0 °F - 59.0 °F 100% 30.02 in 10.0 mi ESE 4.6 mph - N/A   Clear
4:55 AM 60.4 °F - 60.4 °F 100% 30.02 in 10.0 mi ESE 3.5 mph - N/A   Clear
5:55 AM 63.7 °F - 63.7 °F 100% 30.03 in 9.0 mi Variable 4.6 mph - N/A   Clear
6:55 AM 63.9 °F - 63.9 °F 100% 30.06 in 6.0 mi SE 3.5 mph - N/A   Scattered Clouds
7:28 AM 64.4 °F - 64.4 °F 100% 30.08 in 4.0 mi Calm Calm - N/A   Light Drizzle
7:55 AM 65.5 °F - 65.5 °F 100% 30.07 in 4.0 mi West 3.5 mph - 0.00 in   Light Drizzle
8:03 AM 66.2 °F - 66.2 °F 100% 30.07 in 2.5 mi Calm Calm - N/A Rain Light Rain
8:06 AM 66.2 °F - 66.2 °F 100% 30.07 in 2.5 mi Calm Calm - N/A Rain Light Rain
8:07 AM 66.2 °F - 66.2 °F 100% 30.07 in 2.0 mi Calm Calm - N/A Rain Light Rain
8:12 AM 66.2 °F - 66.2 °F 100% 30.07 in 2.5 mi Calm Calm - N/A Rain Light Rain
8:16 AM 66.2 °F - 66.2 °F 100% 30.08 in 3.0 mi Calm Calm - N/A Rain Light Rain
8:21 AM 66.2 °F - 66.2 °F 100% 30.08 in 4.0 mi WNW 5.8 mph - N/A   Clear
8:25 AM 68.0 °F - 68.0 °F 100% 30.09 in 7.0 mi WNW 5.8 mph - N/A   Light Drizzle
8:36 AM 68.0 °F - 68.0 °F 100% 30.10 in 10.0 mi West 5.8 mph - N/A Rain Light Rain Showers
8:55 AM 69.8 °F - 69.8 °F 100% 30.09 in 10.0 mi West 5.8 mph - N/A Rain Light Rain Showers
9:09 AM 69.8 °F - 69.8 °F 100% 30.10 in 10.0 mi West 5.8 mph - N/A   Overcast
9:25 AM 71.6 °F - 71.6 °F 100% 30.09 in 10.0 mi West 11.5 mph - N/A Rain Light Rain Showers
9:55 AM 71.6 °F - 71.6 °F 100% 30.07 in 10.0 mi West 9.2 mph - N/A Rain Light Rain Showers
10:55 AM 73.4 °F - 71.6 °F 94% 30.07 in 10.0 mi WSW 9.2 mph - N/A Rain Light Rain Showers
11:04 AM 73.4 °F - 73.4 °F 100% 30.08 in 10.0 mi WSW 6.9 mph - N/A   Overcast
11:26 AM 71.6 °F - 71.6 °F 100% 30.07 in 10.0 mi West 11.5 mph 17.3 mph N/A Rain Light Rain
11:55 AM 71.6 °F - 69.8 °F 94% 30.04 in 10.0 mi WSW 5.8 mph - N/A Rain Light Rain
12:27 PM 73.4 °F - 71.6 °F 94% 30.03 in 10.0 mi SSW 3.5 mph - N/A   Mostly Cloudy
12:55 PM 75.2 °F - 71.6 °F 89% 30.04 in 10.0 mi WSW 5.8 mph - N/A   Mostly Cloudy
1:55 PM 80.6 °F 83.9 °F 69.8 °F 70% 30.03 in 10.0 mi West 9.2 mph - N/A   Mostly Cloudy
2:55 PM 84.2 °F 88.4 °F 69.8 °F 62% 30.02 in 10.0 mi Variable 5.8 mph - N/A   Mostly Cloudy
3:55 PM 86.0 °F 89.4 °F 68.0 °F 55% 30.01 in 10.0 mi Variable 5.8 mph - N/A   Partly Cloudy
4:55 PM 87.8 °F 91.4 °F 68.0 °F 52% 30.00 in 10.0 mi West 10.4 mph - N/A   Scattered Clouds
5:55 PM 86.0 °F 89.4 °F 68.0 °F 55% 29.99 in 10.0 mi West 4.6 mph - N/A   Scattered Clouds
6:55 PM 84.2 °F 88.4 °F 69.8 °F 62% 29.99 in 10.0 mi WNW 6.9 mph - N/A   Scattered Clouds
7:55 PM 79.9 °F - 70.9 °F 74% 30.00 in 10.0 mi WNW 5.8 mph - N/A   Clear
8:55 PM 76.5 °F - 69.4 °F 79% 30.00 in 10.0 mi WSW 4.6 mph - N/A   Partly Cloudy
9:55 PM 70.7 °F - 70.5 °F 99% 30.01 in 10.0 mi Calm Calm - N/A   Clear
10:55 PM 68.9 °F - 68.9 °F 100% 30.01 in 10.0 mi Calm Calm - N/A   Clear
11:55 PM 66.9 °F - 66.9 °F 100% 30.01 in 10.0 mi ESE 3.5 mph - N/A   Clear